Weather in Verkhnyaya Tishanka

Russia / Voronezh Oblast     51°18′53″N   40°34′27″E
temp.,
°C
wind,
m/s
gust,
m/s
humid.,
%
clouds,
%
prec.,
mm/h
press.,
hPa
HPBL,
m
7 march, sun
sun700:00−7nw49840 0.0 1019382
03:00−7w48830 0.0 1019328
06:00−8wsw49910 0.0 1019254
09:00−5wsw610830 0.0 1017693
12:00−2wsw8127087 0.0 10151123
15:00−1sw9156193 0.0 10111124
18:00−2sw81760100 0.0 10081002
21:00−1wsw91876100 0.0 10061110
8 march, mon
mon800:00−1wsw101787100 0.4 1005984
03:00−2wnw5987100 1.2 1005560
06:00−4sw378297 0.1 1005169
09:00−2sw379699 0.5 1005385
12:000wnw5899100 1.8 1005558
15:000w5891100 3.1 1005769
18:00−2w498166 0.1 1006307
21:00−5wnw368749 0.1 1008142
9 march, tue
tue900:00−6wnw23910 0.0 100957
03:00−5nw239645 0.5 1010200
06:00−7n249599 0.6 1012207
09:00−8nnw348884 0.6 1013264
12:00−6nw348061 0.0 1014638
15:00−5nw457781 0.1 1015959
18:00−7nw3591100 0.3 1016388
21:00−8nnw589199 0.6 1019584
10 march, wed
wed1000:00−11nnw369194 0.1 1020333
03:00−13nnw359276 0.1 1022202
06:00−13nnw359319 0.0 1023220
09:00−13nnw468848 0.0 1025465
12:00−11nnw467863 0.0 1026692
15:00−11nnw457242 0.0 1026728
18:00−13nne348278 0.0 1026217
21:00−15ne348661 0.0 1028128
11 march, thu
thu1100:00−17ne238618 0.0 1029121
03:00−18ene22869 0.0 103090
06:00−19ene23830 0.0 103186
09:00−17ese23752 0.0 1032186
12:00−12se236627 0.0 1032362
15:00−9sse236217 0.0 1031496
18:00−11se33760 0.0 103081
21:00−12sse46740 0.0 1031110